COSMOS 2024 (ETALON 2)

Last updated on Wed Sep 09 2026 00:03:37 GMT+0000 (Coordinated Universal Time)

1 20026U 89039C 26249.86466818 -.00000019 00000+0 00000+0 0 9998 2 20026 64.8804 307.7184 0020880 212.1764 320.5302 2.13204536290241
UTC large
Height (km)
Speed (km/s)
/
Latitude / Longitude
Inclination (degrees)
Orbital Period (minutes)
Azimuth
Elevation
Range (km)
Doppler Factor

Next 0 passes for location: London (51.5072 / 0.1276)

No passes found over London.
COSMOS 2024 (ETALON 2)